User: anonymous   Login
Location: Oshawa
(43.9000°N, 78.8670°W)
Time: 08:44:53
(UTC-04:00)
Language:

Thor Agena Rocket - Orbit

View from above orbital plane
View from above orbital plane
View from above satellite
View from above satellite

Ground track
Ground track

The orbit data is extracted from the following two-line orbital elements,

1 00733U 64002A   14296.79132772  .00000496  00000-0  20142-3 0  3664
2 00733 099.0214 061.1944 0035068 110.2472 058.7010 14.31927922643840
Epoch (UTC): 23 October 2014 18:59:30
Eccentricity: 0.0035068
inclination: 99.0214°
perigee height: 760 km
apogee height: 810 km
right ascension of ascending node: 61.1944°
argument of perigee: 110.2472°
revolutions per day: 14.31927922
mean anomaly at epoch: 58.7010°
orbit number at epoch: 64384

The dashed part of the orbit path shows where the satellite is in the earth's shadow,  

DLR